Preview of NWS' New Version of Forecast
This preview is not operational and should not be used for support decisions.

Regional Weather Roundup (RWR)

Issued by National Weather Service (NWS)

                            
000
ASUS45 KCYS 250810
RWRWY 

WYOMING REGIONAL WEATHER ROUNDUP
NATIONAL WEATHER SERVICE CHEYENNE WY
200 AM MDT SUN AUG 25 2019

NOTE:  "FAIR" INDICATES FEW OR NO CLOUDS BELOW 12,000 FEET
WITH NO SIGNIFICANT WEATHER AND/OR OBSTRUCTIONS TO VISIBILITY.

WYZ001-250900-
YELLOWSTONE NATIONAL PARK
  
CITY           SKY/WX    TMP DP  RH WIND       PRES   REMARKS
LK YELLOWSTONE   N/A     51  35  54 NW3       30.14R                  
W YELLOWSTONE  NOT AVBL                                               

$$
WYZ002>013-054>058-071-098>099-250900-
NORTHERN WYOMING
  
CITY           SKY/WX    TMP DP  RH WIND       PRES   REMARKS
JACKSON        FAIR      67  30  25 SW10      30.05F                  
CODY           FAIR      65  44  46 VRB3      29.91R                  
GREYBULL       FAIR      63  43  48 NW6       29.79S                  
WORLAND        FAIR      61  48  62 S3        29.81F                  
SHERIDAN       FAIR      63  54  72 NW9       29.84R                  
BUFFALO        FAIR      66  46  48 SE12        N/A                   
GILLETTE       FAIR      61  53  75 S8        29.86F                  
HULETT         FAIR      61  52  72 W9        29.88                   
NEWCASTLE      FAIR      59  50  72 NW7       29.89                   

$$
WYZ014>020-022>026-101>103-250900-
CENTRAL WYOMING
  
CITY           SKY/WX    TMP DP  RH WIND       PRES   REMARKS
BIG PINEY      FAIR      58  34  40 W7        30.13F                  
PINEDALE       FAIR      45  36  70 W6        30.15                   
DUBOIS         FAIR      63  30  29 W17       30.06                   
LANDER         FAIR      73  36  25 SW9       29.97F                  
RIVERTON       FAIR      70  35  27 SW12      29.94F                  
CASPER         FAIR      56  43  61 SW6       29.93F                  
DOUGLAS        FAIR      58  45  62 CALM      29.91F                  

$$
WYZ021-027>030-104>119-250900-
SOUTHERN WYOMING
  
CITY           SKY/WX    TMP DP  RH WIND       PRES   REMARKS
EVANSTON       FAIR      60  29  30 SW12      30.17S                  
KEMMERER       FAIR      59  27  29 CALM      30.17                   
ROCK SPRINGS   FAIR      61  29  29 S12       30.12F                  
DIXON          FAIR      49  31  50 E6        30.17S                  
RAWLINS        FAIR      66  31  27 SW14      30.09F                  
SARATOGA       FAIR      54  32  43 E3        30.14F                  
LARAMIE        FAIR      55  29  36 SW12      30.12F                  
CHEYENNE       FAIR      56  47  71 NW3       30.03F                  
TORRINGTON     FAIR      60  59  96 E7        29.89F                  
PINE BLUFFS    FAIR      54  54 100 W6        29.98F                  

$$